This is the latest recevied weather packets stored in our database for station/object KF5WCW-1. If no packets are shown the sender has not sent any weather packets the latest 10 day(s).
| Time | Temp. | Humidity | Pressure | Rain* | Wind** | Luminosity | Snow |
|---|---|---|---|---|---|---|---|
| 1777875673 | 5° C | 63% | 0 hPa | 0 mm | - | - | - |
| 1777875372 | 5° C | 63% | 0 hPa | 0 mm | - | - | - |
| 1777875073 | 5° C | 64% | 0 hPa | 0 mm | - | - | - |
| 1777874773 | 5.56° C | 65% | 0 hPa | 0 mm | - | - | - |
| 1777874472 | 5.56° C | 64% | 0 hPa | 0 mm | - | - | - |
| 1777874172 | 5.56° C | 65% | 0 hPa | 0 mm | - | - | - |
| 1777873873 | 5.56° C | 66% | 0 hPa | 0 mm | - | - | - |
| 1777873573 | 5.56° C | 63% | 0 hPa | 0 mm | - | - | - |
| 1777873273 | 5.56° C | 60% | 0 hPa | 0 mm | - | - | - |
| 1777872973 | 6.11° C | 61% | 0 hPa | 0 mm | - | - | - |
| 1777872673 | 6.11° C | 59% | 0 hPa | 0 mm | - | - | - |
| 1777872373 | 6.67° C | 60% | 0 hPa | 0 mm | - | - | - |
| 1777872073 | 6.67° C | 59% | 0 hPa | 0 mm | - | - | - |
| 1777871773 | 6.67° C | 58% | 0 hPa | 0 mm | - | - | - |
| 1777871473 | 6.67° C | 58% | 0 hPa | 0 mm | - | - | - |
| 1777871173 | 7.22° C | 56% | 0 hPa | 0 mm | - | - | - |
| 1777870873 | 7.22° C | 55% | 0 hPa | 0 mm | - | - | - |
| 1777870573 | 7.78° C | 51% | 0 hPa | 0 mm | - | - | - |
| 1777870273 | 7.78° C | 50% | 0 hPa | 0 mm | - | - | - |
| 1777869973 | 7.78° C | 49% | 0 hPa | 0 mm | - | - | - |
| 1777869673 | 7.78° C | 52% | 0 hPa | 0 mm | - | - | - |
| 1777869373 | 8.33° C | 52% | 0 hPa | 0 mm | - | - | - |
| 1777869073 | 8.33° C | 52% | 0 hPa | 0 mm | - | - | - |
| 1777868773 | 8.89° C | 52% | 0 hPa | 0 mm | - | - | - |
| 1777868473 | 9.44° C | 46% | 0 hPa | 0 mm | - | - | - |
* Rain latest hour (hover to see other rain measurements)
** Current wind speed in m/s (hover to see current wind gust speed)